This demonstration page uses our WeatherBlox Daily Observations layout. Learn more.

Left ArrowRight Arrow

38.20091, -84.87328

Hourly Observations for February 14, 2018

Temp ( °F °C ) Dew Point ( °F °C ) Humidity (%) Winds ( mph kmh ) Pressure ( in mb ) Visibility ( mi km ) Precip ( " mm )
12:53 am 00:53 Cloudy 43 6.1 37 2.8 80 80 S 5 7 30.36 1028 10 16 0.00 0.00
1:53 am 01:53 Cloudy 43 6.1 38 3.3 82 82 Calm 30.36 1028 10 16 0.00 0.00
2:53 am 02:53 Cloudy 46 7.8 40 4.4 79 79 SW 6 9 30.35 1028 10 16 0.00 0.00
3:42 am 03:42 Mostly Cloudy 47 8.3 41 5 80 80 SW 7 11 30.36 1028 10 16 0.00 0.00
3:53 am 03:53 Cloudy 48 8.9 42 5.6 80 80 SW 7 11 30.32 1027 10 16 0.00 0.00
4:53 am 04:53 Cloudy 49 9.4 43 6.1 80 80 SW 6 9 30.32 1027 10 16 0.00 0.00
5:25 am 05:25 Cloudy 49 9.4 44 6.7 83 83 SSW 5 7 30.33 1027 10 16 0.00 0.00
5:53 am 05:53 Cloudy 50 10 45 7.2 83 83 SSW 8 13 30.31 1026 10 16 0.00 0.00
6:15 am 06:15 Cloudy with Mist and Fog 50 10 46 7.8 86 86 SSW 9 15 30.33 1027 6 10 0.00 0.00
6:33 am 06:33 Cloudy with Light Rain 50 10 47 8.3 89 89 SSW 9 15 30.33 1027 3 5 0.02 0.51
6:53 am 06:53 Cloudy with Light Rain 50 10 47 8.3 89 89 SW 5 7 30.31 1026 3 4 0.02 0.51
7:07 am 07:07 Cloudy with Light Rain 50 10 47 8.3 89 89 SSW 5 7 30.33 1027 2 3 0.00 0.03
7:20 am 07:20 Cloudy with Light Rain 51 10.6 48 8.9 89 89 SSW 6 9 30.33 1027 3 5 0.00 0.03
7:30 am 07:30 Cloudy with Light Rain 51 10.6 48 8.9 89 89 Calm 30.33 1027 2 3 0.00 0.03
7:37 am 07:37 Cloudy with Light Rain 50 10 48 8.9 93 93 Calm 30.33 1027 2 2 0.00 0.03
7:53 am 07:53 Cloudy with Heavy Rain 50 10 47 8.3 89 89 NW 7 11 30.33 1027 1 2 0.00 0.03
8:04 am 08:04 Cloudy with Rain 50 10 48 8.9 93 93 WSW 3 6 30.33 1027 2 2 0.00 0.00
8:13 am 08:13 Cloudy with Light Rain 51 10.6 48 8.9 89 89 SSW 5 7 30.33 1027 2 3 0.00 0.00
8:25 am 08:25 Cloudy with Light Rain 51 10.6 49 9.4 92 92 S 5 7 30.33 1027 2 3 0.00 0.00
8:27 am 08:27 Cloudy with Light Rain 51 10.6 49 9.4 92 92 S 5 7 30.33 1027 3 5 0.00 0.00
8:53 am 08:53 Cloudy with Light Rain 52 11.1 49 9.4 89 89 SSW 3 6 30.31 1027 3 5 0.00 0.00
9:12 am 09:12 Cloudy with Rain 52 11.1 49 9.4 89 89 S 6 9 30.33 1027 3 5 0.00 0.00
9:17 am 09:17 Cloudy with Rain 52 11.1 49 9.4 89 89 S 6 9 30.33 1027 3 4 0.00 0.00
9:22 am 09:22 Cloudy with Rain 52 11.1 49 9.4 89 89 S 6 9 30.33 1027 3 5 0.00 0.00
9:30 am 09:30 Cloudy with Heavy Rain 52 11.1 49 9.4 89 89 S 8 13 30.33 1027 2 3 0.00 0.00
9:42 am 09:42 Cloudy with Light Rain 53 11.7 50 10 89 89 S 9 15 30.30 1026 6 10 0.00 0.00
9:51 am 09:51 Cloudy with Rain 54 12 50 10 88 88 S 7 11 30.30 1026 4 6 0.00 0.00
9:53 am 09:53 Cloudy with Light Rain 53 11.7 50 10 89 89 S 8 13 30.28 1025 4 6 0.00 0.00
10:23 am 10:23 Cloudy 54 12.2 51 10.6 90 90 S 5 7 30.30 1026 10 16 0.00 0.03
10:44 am 10:44 Cloudy with Mist and Fog 55 12.8 52 11.1 90 90 undefined N/A 30.27 1025 6 10 0.00 0.03
10:53 am 10:53 Cloudy with Mist and Fog 56 13.3 53 11.7 90 90 undefined N/A 30.26 1025 3 4 0.00 0.03
11:08 am 11:08 Cloudy with Mist and Fog 57 13.9 53 11.7 87 87 SSW 9 15 30.27 1025 5 8 0.00 0.03
11:36 am 11:36 Cloudy with Mist and Fog 57 13.9 54 12.2 90 90 S 8 13 30.24 1024 4 6 0.00 0.03
11:53 am 11:53 Cloudy with Mist and Fog 58 14.4 54 12.2 87 87 SSW 12 19 30.24 1024 4 6 0.00 0.03
12:53 pm 12:53 Cloudy 59 15 55 12.8 87 87 SSW 14 22 30.20 1023 10 16 0.00 0.00
1:53 pm 13:53 Cloudy 60 15.6 56 13.3 86 86 S 14 22 30.16 1021 10 16 0.00 0.00
2:16 pm 14:16 Cloudy 61 16.1 56 13.3 84 84 SSW 14 22 30.15 1021 10 16 0.00 0.00
2:53 pm 14:53 Cloudy with Light Rain 61 16.1 56 13.3 84 84 SSW 16 26 30.12 1020 10 16 0.00 0.03
3:53 pm 15:53 Cloudy with Rain 60 15.6 56 13.3 86 86 SSW 9 15 30.10 1019 3 4 0.07 1.78
4:00 pm 16:00 Cloudy with Light Rain 60 15.6 56 13.3 86 86 S 10 17 30.09 1019 7 11 0.01 0.25
4:53 pm 16:53 Cloudy 61 16.1 57 13.9 87 87 SSW 14 22 30.09 1019 10 16 0.01 0.25
5:28 pm 17:28 Cloudy 61 16.1 57 13.9 87 87 SSW 16 26 30.09 1019 10 16 0.00 0.00
5:40 pm 17:40 Cloudy 61 16.1 56 13.3 84 84 SSW 15 24 30.09 1019 10 16 0.00 0.00
5:53 pm 17:53 Cloudy 61 16.1 56 13.3 84 84 SSW 12 19 30.08 1019 10 16 0.00 0.00
6:53 pm 18:53 Cloudy 61 16.1 56 13.3 84 84 SSW 13 20 30.07 1018 10 16 0.00 0.03
7:48 pm 19:48 Cloudy 61 16 55 13 83 83 SSW 14 22 30.06 1018 10 16 0.00 0.00
7:53 pm 19:53 Cloudy 60 15.6 56 13.3 86 86 SSW 15 24 30.06 1018 10 16 0.00 0.00
8:53 pm 20:53 Cloudy 60 15.6 56 13.3 86 86 SSW 16 26 30.05 1018 10 16 0.00 0.00
9:53 pm 21:53 Cloudy 61 16.1 56 13.3 84 84 SSW 18 30 30.05 1018 10 16 0.00 0.00
10:53 pm 22:53 Cloudy 60 15.6 56 13.3 86 86 SW 13 20 30.03 1017 10 16 0.00 0.00
11:53 pm 23:53 Cloudy with Light Rain 60 15.6 57 13.9 90 90 SW 12 19 30.01 1016 3 5 0.00 0.03

Powered by AerisWeather